Theta_e
299 299 299 300 300 301 302 302 303 303 303 303 304 304 304 304 304 304 304 304 304 302 301 300 300 300 301 302 302 302 302 303 303 303 303 303 303 303 304 304 304 304 303 303 303 303 303 302 302 301 300 300 299 298 297 296 295 295 295 295 295 295
297 297 298 299 299 300 300 301 302 302 302 303 303 303 304 304 304 304 304 303 303 303 303 301 300 299 299 300 300 301 302 302 303 303 303 303 303 303 303 303 304 304 303 303 303 303 303 302 302 302 301 300 299 299 298 296 295 294 294 294 294 294
297 297 297 298 298 298 298 298 299 300 300 301 301 302 302 303 303 304 304 303 303 303 303 303 302 301 300 299 298 299 300 300 301 302 302 302 303 303 303 303 303 303 303 303 303 302 302 302 302 302 301 300 300 299 298 297 296 295 294 294 294 294
297 297 297 297 297 297 296 296 296 296 297 298 298 299 300 300 301 301 302 302 302 303 303 303 303 303 302 300 299 298 298 299 299 300 301 301 301 302 302 302 302 302 303 303 303 303 302 302 302 302 301 301 300 299 298 298 296 295 294 294 294 294
295 296 296 296 296 296 295 295 294 294 294 295 296 297 297 297 298 299 300 301 301 301 302 302 303 303 303 302 301 300 299 298 298 298 299 299 300 300 300 301 301 301 302 302 302 303 302 302 302 301 301 301 301 300 299 298 298 296 295 295 295 294
295 294 295 294 294 294 294 294 294 294 294 294 294 295 295 296 296 297 298 298 299 299 300 301 301 301 302 302 302 301 300 298 298 298 298 298 298 299 299 300 300 300 300 301 301 302 302 302 302 302 301 301 300 300 300 299 299 298 297 296 295 295
294 294 293 293 293 293 293 293 294 294 294 294 293 293 294 294 295 296 296 296 297 297 298 299 300 300 300 301 301 301 301 300 299 298 298 297 297 298 298 299 299 299 299 300 300 301 301 302 302 302 302 301 301 300 299 299 299 298 298 297 296 295
293 293 293 293 293 293 293 293 293 293 293 293 292 292 292 292 293 294 294 295 296 296 296 297 298 298 299 300 300 300 300 300 300 299 298 297 297 297 297 297 298 298 299 299 299 299 300 300 301 301 301 301 301 300 300 299 299 298 298 297 297 296
291 291 291 291 291 291 291 291 292 292 292 291 291 291 291 291 292 292 293 293 294 295 295 296 296 296 297 299 299 300 300 300 300 299 299 298 297 297 296 296 296 297 298 298 298 298 298 299 299 299 300 300 300 300 300 299 299 298 298 298 297 296
289 289 290 290 290 290 290 290 290 290 290 290 290 290 290 291 291 291 291 292 292 293 294 295 295 295 296 297 298 299 299 299 299 299 299 298 297 296 295 295 295 296 296 297 297 297 297 297 298 298 299 299 299 299 299 299 299 298 298 298 297 296
289 289 289 289 289 289 290 290 290 290 290 290 290 290 290 290 290 290 290 290 291 291 292 293 294 295 295 296 297 298 298 299 299 299 298 298 298 296 295 294 294 294 295 295 295 296 296 296 297 297 298 298 298 298 298 298 298 298 298 298 297 296
288 288 288 288 288 288 289 289 289 289 289 289 289 289 289 289 289 289 289 290 290 290 290 291 292 293 294 295 296 297 297 298 298 298 298 298 297 297 295 294 293 293 294 294 294 295 295 295 296 296 297 297 297 297 297 298 298 298 297 297 297 296
288 288 288 288 288 288 288 288 288 288 288 289 289 289 289 289 288 288 288 288 288 289 289 290 290 291 291 292 294 295 296 296 297 297 297 297 297 297 295 294 293 293 293 293 293 294 294 295 295 295 295 296 296 296 296 296 297 297 297 296 296 296
288 288 288 288 288 288 288 287 287 287 287 287 288 288 288 288 288 288 287 287 287 287 288 288 289 289 290 291 291 292 293 294 295 296 296 297 297 296 296 295 293 292 292 292 292 293 293 294 294 294 294 295 295 295 295 295 295 296 296 296 295 295
287 287 287 287 287 287 287 287 287 286 286 286 286 286 286 287 287 287 287 287 286 286 286 287 288 288 289 289 290 291 291 292 293 294 295 296 296 296 296 295 294 293 292 292 292 292 292 293 293 294 294 294 294 294 294 294 294 295 295 296 295 295
287 287 287 287 287 287 287 287 286 286 286 286 286 286 285 285 285 285 286 286 286 285 285 285 286 287 287 288 289 289 290 291 292 292 293 294 295 296 296 295 294 293 292 291 291 291 292 292 292 293 293 293 293 293 293 293 294 294 295 295 295 295
287 287 287 287 287 287 287 286 286 286 286 286 286 285 285 285 285 285 285 285 285 285 285 285 285 285 286 286 287 287 288 289 290 291 292 293 294 295 295 295 294 294 293 292 291 291 291 291 291 292 292 292 292 292 292 292 293 293 293 294 294 294
287 287 287 287 287 286 286 286 286 286 286 286 285 285 285 285 285 285 285 285 285 285 285 285 285 285 285 285 285 286 286 287 288 289 291 291 292 293 294 295 294 293 293 292 291 290 290 290 290 291 291 291 291 291 291 291 292 292 292 293 293 293
287 287 287 286 286 286 286 286 286 285 285 285 285 285 285 285 285 285 285 285 285 285 285 285 285 285 285 285 285 285 285 285 286 287 288 289 291 292 293 294 295 294 293 292 291 291 290 290 290 290 290 290 290 290 290 290 291 291 292 292 292 292
287 287 286 286 286 286 286 285 285 285 285 285 285 285 285 285 285 285 285 285 285 285 285 285 285 285 285 285 285 285 285 284 285 285 286 287 289 290 292 293 294 294 293 292 291 291 290 290 289 289 289 289 289 289 289 289 290 290 291 291 291 291
287 287 287 286 286 286 285 285 285 284 284 285 284 284 284 284 284 284 284 284 285 285 285 285 285 284 285 285 285 285 284 284 285 285 285 285 286 288 290 291 293 294 294 293 291 290 290 290 289 288 288 288 288 289 289 289 289 290 290 290 290 290
287 286 286 286 286 286 285 285 285 284 284 284 284 284 284 284 284 284 284 284 284 284 285 285 284 284 285 285 284 284 284 284 284 284 284 285 285 286 288 289 291 293 294 294 292 290 290 290 289 288 288 287 288 288 288 288 288 289 289 289 289 289
286 286 286 286 286 285 285 284 284 284 284 284 284 284 284 283 283 283 283 284 284 284 284 284 284 285 285 285 285 285 284 284 284 284 284 284 284 285 286 288 289 291 293 294 293 291 290 290 290 289 288 287 287 287 287 287 288 288 288 288 288 289
286 286 286 286 285 285 284 284 283 283 283 283 283 283 283 282 282 283 283 283 284 284 284 284 284 284 285 285 285 285 285 284 284 284 284 284 284 284 285 286 288 289 291 293 294 292 290 289 289 289 288 287 287 286 286 286 287 287 287 287 288 288
285 285 285 285 285 284 284 283 283 283 283 283 283 283 282 282 282 282 282 283 284 284 284 284 284 284 284 284 284 284 285 285 285 284 284 284 284 284 284 285 286 288 289 291 293 293 292 290 289 289 288 288 287 286 286 286 286 286 287 287 287 288
284 284 284 284 284 284 283 282 282 282 282 283 282 282 281 281 281 281 282 283 283 283 283 284 284 284 284 284 284 284 284 285 285 285 284 284 284 284 284 284 285 286 288 290 291 293 294 292 289 288 288 288 287 286 286 286 286 286 286 286 287 287
283 283 283 283 283 283 282 282 281 281 282 282 281 280 280 280 280 280 281 282 282 282 282 282 283 283 283 283 284 283 284 284 285 285 284 284 284 284 284 284 285 285 287 289 290 291 293 293 290 288 288 288 288 286 285 285 286 286 286 286 286 286
282 282 282 282 282 282 282 281 280 280 280 280 279 278 277 277 277 279 280 281 281 281 280 280 281 282 283 283 283 282 282 283 283 284 284 284 283 283 283 284 284 285 286 287 289 290 292 293 292 290 288 287 287 287 286 285 285 286 286 286 286 286
281 281 281 281 282 282 281 280 279 278 277 276 275 274 274 274 274 275 277 279 279 279 279 278 278 279 280 281 281 281 281 281 281 281 282 283 283 283 283 283 283 284 284 286 287 289 291 292 292 291 289 287 287 287 287 286 285 285 285 286 286 285
279 279 278 279 281 280 279 278 277 276 274 273 272 271 271 272 272 272 273 275 276 276 276 276 275 276 276 277 278 278 279 280 279 279 280 281 282 282 282 282 282 283 284 285 286 288 289 291 292 291 291 289 288 287 287 286 285 285 285 285 285 285
277 276 275 276 277 276 276 276 275 273 271 270 269 269 269 270 271 270 271 272 272 273 273 273 273 273 273 273 274 276 277 278 277 277 279 280 281 281 281 281 281 282 283 283 284 286 287 290 292 292 291 290 288 287 287 286 286 285 285 285 285 285
274 273 272 273 273 272 272 273 272 271 269 267 267 267 267 267 268 268 269 270 269 269 270 269 270 270 270 270 271 272 274 276 276 276 277 279 280 280 279 280 281 282 282 282 283 285 286 288 290 291 289 288 287 286 286 286 285 285 285 284 284 284
273 271 271 271 270 270 270 270 269 268 267 265 265 265 265 265 265 266 267 266 266 266 266 266 266 267 267 267 268 269 270 273 275 276 276 277 279 279 279 279 280 281 281 282 283 284 285 286 287 288 288 287 286 285 285 284 284 284 284 284 284 284
271 270 268 268 267 267 267 266 266 265 264 264 264 263 263 263 263 263 264 264 263 263 263 263 263 263 264 265 266 267 268 270 272 274 275 276 277 278 278 279 280 280 281 282 282 283 284 285 286 287 287 287 286 285 284 284 283 283 283 284 284 283
267 266 265 264 264 264 263 263 263 263 262 262 262 262 262 262 262 262 262 262 262 262 262 262 262 262 263 264 265 267 268 270 271 272 273 274 276 277 277 278 279 280 281 282 282 282 283 283 284 285 286 286 286 285 284 283 283 283 283 283 283 283
264 263 263 262 262 262 262 261 261 262 261 261 262 262 262 262 262 262 262 262 262 262 262 262 262 263 263 264 266 267 267 268 269 269 270 272 273 274 275 276 277 279 280 281 282 282 282 283 283 284 285 285 285 285 285 283 283 283 283 283 283 282
263 262 262 262 261 261 261 261 261 261 261 261 261 261 261 262 262 262 262 261 261 262 262 262 262 262 263 263 264 265 265 266 266 267 268 269 271 272 274 275 276 277 279 280 281 282 282 282 282 282 283 283 283 284 284 283 283 283 283 283 282 282
263 262 262 262 261 261 261 261 261 261 261 261 261 261 261 261 261 261 261 261 261 261 261 261 261 262 262 262 262 263 264 265 266 268 269 270 271 273 275 276 277 277 278 279 281 281 282 282 282 282 282 282 282 283 283 282 282 283 283 282 282 282
Wind_Speed
36 36 35 34 34 33 32 31 29 28 28 28 27 28 29 30 30 30 28 25 23 21 20 20 22 25 28 31 34 37 38 39 39 39 39 38 38 39 38 39 39 40 41 42 43 43 44 44 45 47 48 49 49 49 49 49 49 49 49 49 48 47
37 37 36 35 34 33 32 31 30 29 29 28 28 27 26 26 27 29 30 30 28 25 23 22 22 23 25 28 31 35 36 37 38 38 38 38 38 39 40 40 40 40 41 41 42 42 42 43 44 46 48 49 50 50 50 50 51 51 51 50 49 48
35 36 36 35 34 34 34 33 32 30 29 29 29 28 27 27 26 27 29 31 31 30 28 25 22 22 23 26 29 33 35 36 37 37 38 39 39 39 40 41 42 41 41 41 42 42 43 43 43 44 47 49 50 51 51 52 52 52 52 51 51 50
33 34 34 34 35 36 37 38 36 34 33 32 30 29 29 30 29 28 29 29 30 32 31 29 26 22 21 23 26 30 33 35 36 37 38 40 40 41 42 42 43 43 43 42 43 43 43 44 43 44 45 48 50 52 53 53 53 53 53 53 53 52
31 32 33 34 35 36 37 39 39 38 38 36 35 33 32 31 31 30 30 29 29 31 31 31 29 26 23 22 23 25 28 31 34 35 37 39 40 42 43 44 44 45 45 45 45 45 45 45 45 45 45 47 49 52 53 54 54 54 54 54 54 54
31 32 34 35 36 37 37 38 39 39 39 39 38 37 35 33 33 32 32 32 31 31 31 31 31 30 29 26 24 23 24 26 29 32 35 37 38 40 42 44 45 46 47 48 48 48 47 47 46 46 47 48 49 51 52 54 54 55 55 55 54 55
32 33 34 36 36 37 37 38 39 39 39 39 39 38 37 36 34 34 33 34 34 34 33 33 33 33 33 32 29 27 25 24 25 28 32 35 37 38 40 42 45 47 49 50 50 51 50 50 48 48 48 49 49 50 52 54 55 55 55 55 55 55
31 32 33 34 35 36 36 37 38 38 39 39 39 39 39 37 36 35 34 34 35 35 35 35 35 35 35 35 34 33 30 27 26 26 28 32 36 38 40 41 43 46 48 50 51 52 53 52 51 51 50 50 50 51 53 54 55 55 55 55 55 56
29 30 32 33 34 35 35 36 37 38 39 39 40 40 40 39 38 37 36 35 35 35 36 36 36 36 35 35 36 36 34 32 30 29 29 29 33 37 40 42 43 44 46 48 51 52 53 53 53 53 53 52 52 52 53 54 55 55 55 56 57 57
27 29 30 31 32 33 34 35 35 36 38 39 40 40 40 40 40 39 38 37 36 35 35 35 36 36 35 35 35 35 35 35 34 33 32 30 31 34 38 41 43 44 45 47 50 52 52 53 54 55 55 55 54 54 54 55 56 56 56 57 58 58
24 26 27 28 30 31 32 33 35 36 37 38 39 39 40 41 40 40 39 38 38 37 36 34 34 34 34 34 35 35 35 35 35 35 34 33 32 32 34 37 41 43 45 47 49 51 51 53 55 57 57 57 56 56 55 55 57 57 58 58 59 59
23 23 25 26 27 28 29 30 31 33 34 35 37 38 39 40 41 41 40 39 39 38 38 37 35 34 33 32 33 34 34 34 35 35 35 34 33 33 32 34 38 42 44 46 48 50 51 53 55 57 57 58 57 56 56 56 57 58 59 59 60 60
23 24 25 26 26 26 27 27 28 29 30 31 33 34 36 38 40 41 41 40 39 39 38 39 38 37 35 33 32 32 32 33 34 35 35 34 33 32 31 31 34 39 43 45 46 49 51 53 54 55 56 57 57 57 56 56 57 59 60 60 61 61
23 24 25 26 27 27 27 27 28 28 28 29 31 32 34 35 37 38 40 41 41 40 40 40 40 39 38 37 36 34 33 33 33 34 34 35 34 31 30 30 32 35 39 43 46 48 51 52 53 54 55 56 57 57 57 57 57 58 59 60 61 61
23 23 25 25 26 27 27 27 28 28 28 28 29 31 32 34 35 36 38 39 41 41 41 41 41 41 40 40 39 38 36 35 34 34 34 34 34 32 31 30 30 32 35 40 45 47 49 50 51 52 54 55 56 57 57 58 58 57 57 58 60 60
23 24 25 26 26 27 27 27 28 29 29 29 29 30 30 32 33 35 36 37 39 40 42 42 42 42 42 42 41 40 39 38 37 36 34 34 33 33 32 30 30 30 32 36 42 46 48 50 50 51 53 54 56 56 57 57 58 58 56 56 57 59
25 25 26 27 27 28 29 29 29 30 31 31 32 32 32 32 33 34 35 36 37 38 40 42 43 43 43 43 43 43 42 40 39 38 37 36 35 34 33 31 30 30 30 32 36 42 47 49 49 50 51 53 55 55 56 56 57 58 57 57 57 58
26 27 28 29 29 30 31 31 31 32 33 33 34 34 35 35 36 36 36 37 37 38 39 41 43 44 44 44 44 45 45 44 42 40 39 39 37 35 34 33 31 29 29 29 32 38 44 46 47 49 50 52 54 54 55 56 57 57 58 58 58 59
27 28 29 31 32 33 33 33 34 35 36 36 36 37 37 38 38 39 39 40 40 40 40 41 43 44 45 45 45 46 46 47 46 43 41 41 40 38 36 35 32 30 28 28 30 34 39 43 45 47 49 50 52 53 54 55 56 57 58 59 59 59
29 30 31 33 35 35 35 35 37 38 39 39 39 39 40 40 40 40 41 41 42 42 42 42 43 44 45 46 46 47 47 47 47 46 44 43 42 41 39 37 35 32 29 28 29 30 34 38 41 44 48 49 51 52 53 53 54 56 57 59 59 59
31 32 34 35 37 38 38 39 40 41 43 43 43 43 43 43 43 43 43 43 42 42 43 44 44 45 46 47 47 48 48 48 48 48 47 45 44 43 41 39 38 36 32 29 29 29 31 34 37 41 45 48 49 50 51 52 54 56 57 58 59 59
33 34 36 37 39 39 40 41 43 44 46 47 47 47 47 46 46 47 47 46 44 44 43 44 45 46 47 48 49 49 49 49 50 50 49 48 47 45 44 41 39 38 35 31 29 28 29 31 33 37 42 46 48 48 48 51 54 56 57 57 58 58
36 37 38 40 41 41 41 42 44 46 47 48 49 50 50 48 48 49 50 50 49 48 47 46 46 47 48 49 50 51 51 50 50 51 51 51 50 48 46 44 42 40 38 35 31 29 29 29 31 34 37 42 46 46 47 50 53 54 55 55 55 56
38 39 41 43 43 43 43 44 46 47 48 49 51 51 50 50 51 52 53 53 53 53 52 50 49 49 49 50 51 52 53 52 51 52 53 53 52 50 48 46 44 42 41 38 34 32 30 29 29 31 33 37 42 43 45 48 49 50 51 52 53 54
40 42 45 46 46 46 45 46 48 49 50 52 52 52 52 53 54 55 56 57 57 56 56 55 54 52 51 51 52 54 55 55 54 54 54 54 54 53 50 48 46 44 44 41 38 35 32 30 30 30 30 33 38 41 43 46 47 47 47 49 51 51
43 45 47 48 48 48 48 48 50 52 53 54 54 53 54 55 56 58 59 60 60 59 59 59 58 57 55 54 53 54 55 56 56 56 55 55 55 54 53 50 47 46 45 44 42 38 34 32 31 31 30 29 33 38 41 43 46 46 45 46 48 48
45 47 49 50 50 50 50 51 52 53 56 56 55 55 56 57 58 60 62 62 63 62 61 61 61 60 59 58 56 55 55 56 57 58 57 56 55 55 54 52 49 46 45 44 44 41 37 33 32 33 32 29 29 34 37 39 42 44 43 43 44 45
47 49 51 52 53 52 53 53 53 54 57 57 55 55 56 57 59 62 64 64 65 65 64 64 64 64 63 62 60 58 57 55 55 57 57 56 55 54 54 52 49 47 46 45 44 42 39 35 33 34 34 31 29 30 32 35 40 43 43 41 40 40
49 51 53 55 56 56 57 57 55 55 55 54 53 54 55 57 59 62 65 67 67 67 67 67 66 66 65 63 62 60 58 55 53 53 54 55 55 54 53 51 49 47 46 45 45 42 39 37 35 34 34 33 31 29 28 31 38 41 41 40 39 39
50 52 53 56 59 59 59 59 58 56 54 52 51 52 55 58 60 61 64 67 68 68 68 67 66 65 64 63 62 60 59 57 54 51 51 53 52 51 50 49 48 47 46 45 44 42 39 37 36 35 33 33 32 30 27 29 37 41 40 39 39 39
51 51 53 56 59 59 60 61 61 58 53 51 51 52 55 60 62 63 65 67 66 66 65 64 63 62 60 60 60 59 58 57 52 49 50 53 52 51 50 49 48 49 47 44 43 42 40 39 37 34 30 30 31 31 28 29 36 42 41 39 39 38
51 51 53 57 59 59 61 63 63 60 56 53 53 53 55 58 61 62 63 62 60 60 59 58 58 58 56 55 55 55 56 56 53 48 48 51 52 50 47 46 47 48 45 42 42 42 41 40 37 32 28 29 30 30 29 29 34 41 45 42 39 37
55 55 56 59 60 60 62 63 63 61 58 54 52 51 51 52 53 55 57 56 53 53 53 53 53 53 52 52 51 49 50 52 52 50 46 46 49 49 45 43 44 45 40 37 39 41 40 38 37 33 30 29 28 29 30 30 33 40 45 45 41 39
56 56 56 57 58 58 59 59 58 56 53 51 48 46 46 45 46 48 51 51 49 49 48 48 49 49 48 49 48 44 40 39 39 40 38 34 33 35 35 35 37 39 37 35 35 37 38 38 36 34 32 30 28 28 29 29 32 38 43 44 44 43
51 52 52 53 54 54 54 55 54 52 50 48 46 44 44 44 44 46 48 48 48 48 47 45 44 42 42 41 39 34 32 30 31 34 35 33 31 30 30 32 33 34 35 34 33 33 35 37 36 32 31 30 28 27 27 27 31 37 41 44 46 46
47 49 50 50 51 52 53 53 53 51 49 48 47 45 45 45 45 46 47 47 47 46 44 40 37 36 35 35 33 32 34 37 39 41 43 44 44 41 38 35 34 32 31 32 33 31 31 34 35 33 30 29 28 26 24 25 30 36 40 43 47 49
46 47 48 49 50 51 52 53 53 51 50 49 47 46 46 45 45 46 47 46 45 44 43 41 40 39 39 41 42 42 44 45 45 45 45 43 42 39 35 32 31 30 28 28 30 31 30 31 33 33 29 26 26 25 22 24 31 37 40 43 46 49
46 46 47 48 49 50 52 52 51 50 48 47 45 45 45 44 44 45 46 45 45 45 45 45 45 44 45 45 45 45 43 40 36 35 35 33 32 33 33 32 31 29 27 24 26 28 28 28 30 32 28 24 23 24 24 29 36 41 43 45 47 48
Wind_Direction
28 27 27 27 26 25 23 22 19 16 16 14 12 10 7 5 1 359 356 350 340 331 321 309 298 290 286 284 282 279 277 276 274 271 269 268 266 264 262 260 258 255 252 250 248 247 245 244 242 239 237 235 234 232 232 231 230 230 230 229 229 229
25 23 22 21 20 19 18 17 13 12 11 9 9 7 4 1 358 356 355 353 349 341 333 325 314 303 293 287 282 278 276 277 277 275 273 271 268 266 263 262 261 259 257 254 252 250 247 246 244 241 238 236 235 233 232 232 231 230 230 230 229 230
19 19 18 16 15 13 14 15 14 12 9 6 5 2 359 359 357 355 352 351 350 346 341 333 324 314 306 298 289 282 278 275 275 275 275 273 270 268 266 264 262 261 260 258 256 254 251 249 246 244 241 238 236 234 233 232 232 231 230 230 229 230
16 15 14 12 11 10 10 12 13 13 12 10 8 5 3 1 359 357 354 352 350 348 345 339 332 323 313 306 301 295 289 283 279 277 276 274 273 270 268 266 264 262 261 260 259 257 254 252 249 247 244 240 238 235 233 232 231 231 230 229 230 230
15 13 12 10 10 9 8 8 9 11 11 10 9 8 7 4 1 359 356 354 353 351 349 345 340 333 322 312 307 304 300 296 291 286 281 278 277 274 271 269 266 265 263 261 260 258 256 254 251 249 246 243 240 237 234 233 231 230 230 230 230 231
14 12 11 10 9 8 7 6 5 6 6 6 6 6 5 3 1 359 356 355 353 352 351 349 347 343 336 325 313 306 304 303 300 295 290 286 282 278 275 273 270 267 264 262 260 258 257 255 253 251 249 246 243 240 237 235 233 231 231 231 231 231
11 10 9 8 6 5 4 2 1 0 1 1 1 1 1 360 358 357 356 355 353 352 352 350 349 348 345 339 328 317 307 302 300 298 295 292 288 283 279 276 272 269 267 265 263 261 259 257 255 253 251 248 246 243 240 237 235 233 232 232 232 233
8 6 5 4 3 2 360 358 357 356 355 356 356 356 356 356 357 356 354 353 352 351 351 351 350 349 347 344 339 332 320 307 299 296 295 294 292 288 283 278 275 272 271 269 266 264 261 259 257 255 253 250 247 245 242 239 237 235 234 233 233 233
8 5 3 1 1 0 359 357 356 353 352 352 352 352 352 352 353 353 352 351 350 348 348 349 350 349 347 345 342 339 333 322 309 298 293 293 292 291 287 282 278 275 274 272 269 265 263 260 258 256 254 251 248 245 243 241 238 235 234 234 233 233
7 5 2 360 358 357 356 355 354 352 350 349 348 348 348 347 348 349 349 348 347 347 345 345 345 346 345 344 342 340 338 332 323 310 298 291 289 291 290 287 283 279 276 273 270 266 263 260 258 257 254 252 248 245 243 242 239 236 234 233 233 233
2 2 360 359 356 354 352 351 349 348 347 345 345 344 344 344 344 345 345 344 345 344 343 342 341 340 340 339 338 338 338 336 332 324 311 297 289 289 291 289 286 281 276 273 270 266 263 261 259 258 255 253 250 247 244 242 241 238 236 234 233 232
356 355 355 355 354 352 351 348 345 344 342 341 340 340 340 341 340 340 341 341 341 341 340 339 338 338 338 336 335 334 335 335 336 334 326 312 297 290 291 291 287 282 278 273 270 268 265 262 261 259 256 255 253 250 247 244 242 241 238 236 235 233
349 348 348 349 348 347 346 344 342 340 338 337 336 335 336 336 336 337 337 338 338 338 337 337 336 337 338 337 335 333 331 332 333 335 335 328 313 298 292 291 288 284 281 276 273 270 267 265 263 260 258 256 254 252 249 245 243 242 240 238 236 235
341 342 341 341 341 340 340 338 337 336 336 335 334 333 332 331 331 332 333 334 336 337 336 335 334 335 336 336 335 334 332 331 330 331 333 335 330 314 298 291 290 289 284 279 274 271 268 267 265 263 260 258 256 253 250 247 244 243 242 241 239 237
334 334 334 335 335 333 333 332 331 331 332 333 332 331 330 329 329 328 328 330 332 334 335 335 333 332 333 334 333 332 332 331 331 331 330 332 333 328 313 300 294 292 288 282 277 273 270 269 267 264 262 260 257 254 250 247 245 244 243 243 242 240
327 327 327 328 327 327 326 325 323 323 324 326 327 327 328 327 327 327 327 327 329 331 333 334 333 332 331 331 331 330 330 329 329 330 330 329 329 330 325 314 302 294 290 286 281 276 272 270 268 265 263 261 258 255 252 249 246 245 244 243 243 243
321 321 321 321 321 320 320 319 317 317 317 319 320 321 323 323 323 324 325 325 327 329 330 332 332 332 331 331 330 328 328 327 326 326 327 326 325 326 326 322 313 302 294 289 284 279 275 272 269 266 264 262 259 255 252 249 246 245 244 243 242 242
315 315 315 315 315 315 315 314 313 312 312 313 314 315 317 318 318 320 321 321 323 325 326 328 329 329 330 331 330 328 327 326 325 325 324 323 321 321 322 323 320 311 300 292 287 282 278 274 271 267 264 261 258 254 251 248 246 244 244 243 242 242
311 311 310 310 311 311 311 310 309 309 309 309 310 311 312 312 314 316 316 316 318 320 322 324 324 325 326 328 328 328 327 325 324 324 323 320 318 318 318 319 318 314 305 295 288 284 281 278 273 269 265 261 257 253 249 247 245 244 243 243 242 242
311 310 310 309 310 312 311 309 308 307 307 306 308 308 309 310 312 313 312 312 314 316 318 320 320 320 321 322 324 324 324 324 323 322 321 319 317 315 315 315 314 313 309 301 292 287 284 281 276 270 265 261 257 253 249 247 245 244 243 242 242 241
310 309 309 308 310 311 310 308 307 307 307 306 307 306 306 308 310 310 308 308 310 312 314 316 316 316 317 317 318 320 320 321 321 321 320 318 315 313 312 312 311 311 310 305 298 291 285 282 278 272 266 261 257 253 250 247 245 244 243 242 240 240
308 307 306 306 307 308 307 305 305 305 305 306 306 305 305 306 307 307 306 306 307 307 308 310 311 311 313 313 314 315 316 317 318 318 318 317 315 312 310 309 308 307 307 306 301 293 286 283 280 274 267 261 256 253 249 246 244 243 242 240 239 238
306 305 305 306 306 305 304 303 302 302 303 304 303 303 305 306 305 304 303 304 304 304 305 305 305 306 307 309 310 311 311 313 314 315 315 314 314 311 308 306 306 304 303 303 300 294 287 283 280 276 270 262 256 252 248 245 244 242 240 240 240 239
305 304 304 305 305 304 303 302 301 301 302 302 301 302 304 304 302 302 302 302 302 302 302 302 302 302 303 304 305 306 307 308 309 311 311 311 311 309 307 304 302 302 301 299 298 295 289 283 279 277 272 265 258 252 246 244 244 243 241 241 242 241
304 304 304 303 302 302 302 302 301 301 301 300 300 302 302 301 300 300 300 300 300 300 300 301 300 300 300 300 302 303 303 304 305 306 308 308 308 307 305 303 300 299 298 297 295 294 291 285 279 275 273 268 260 253 247 244 245 244 242 242 244 244
305 304 303 302 301 302 302 302 301 300 299 299 300 301 299 298 298 298 298 299 299 298 298 299 298 298 298 298 298 299 299 300 301 303 304 305 305 304 303 302 298 295 294 294 293 291 290 287 280 273 271 268 262 255 248 243 244 244 243 244 245 246
305 304 302 302 302 302 302 300 298 297 298 299 299 298 297 297 296 296 296 297 297 297 297 296 296 296 296 296 296 296 296 296 297 299 299 301 301 300 299 299 296 291 289 289 288 287 287 285 280 273 268 265 263 257 248 241 240 243 243 242 243 245
304 302 302 302 302 302 301 298 297 296 296 297 297 296 296 295 295 294 294 294 294 294 295 294 294 293 293 293 293 293 293 293 293 294 295 296 297 297 295 294 292 288 284 282 283 284 284 281 278 274 268 262 258 255 249 238 235 240 242 242 242 244
302 301 300 301 301 301 299 297 296 295 295 296 296 295 294 294 293 293 292 292 292 292 292 293 293 293 292 291 291 291 291 290 290 290 290 291 292 292 291 289 287 284 280 278 279 280 280 278 275 272 268 261 253 251 248 236 230 234 238 239 238 239
300 299 299 299 299 299 297 296 295 295 295 295 295 294 294 293 292 292 292 291 291 291 292 292 293 293 292 291 290 289 289 288 288 287 286 286 287 286 286 284 282 280 278 276 276 276 275 274 271 269 268 264 255 249 244 232 224 226 231 233 232 232
300 300 299 298 298 297 296 295 294 294 295 295 294 294 294 292 292 292 292 291 292 292 292 293 292 292 292 291 290 289 287 286 287 285 283 283 283 281 280 280 278 278 276 273 272 271 269 269 270 270 271 271 263 253 245 232 222 222 225 229 229 228
301 300 299 297 297 297 296 295 294 294 295 296 295 295 294 293 293 293 292 292 292 292 293 293 292 291 291 291 290 290 288 285 283 281 279 279 279 278 276 275 275 276 274 270 268 267 266 266 270 271 269 268 265 257 247 235 224 221 222 225 226 225
303 302 300 300 299 298 297 296 296 296 298 298 299 298 296 296 296 294 292 293 294 295 295 294 293 294 293 292 292 293 291 289 287 284 281 279 278 277 275 272 270 270 268 264 263 265 266 265 265 265 261 259 259 256 248 235 221 217 219 222 221 219
305 304 303 302 301 300 299 299 299 301 303 304 304 303 301 300 298 295 295 296 297 297 297 296 296 296 296 296 298 298 294 291 290 288 285 281 278 276 274 270 265 263 260 257 256 260 263 263 262 261 259 257 254 252 248 235 218 213 216 219 218 217
309 309 309 308 307 307 306 306 307 309 310 309 309 307 303 301 298 296 296 297 298 298 296 295 294 293 293 297 300 295 285 279 277 278 278 273 268 267 268 266 261 258 256 255 252 251 255 260 261 260 257 255 252 247 245 234 216 211 214 215 213 213
315 315 315 314 313 312 310 310 311 312 311 310 309 306 302 300 298 296 295 296 296 294 292 288 286 285 286 289 287 279 273 272 272 274 277 276 275 275 275 270 263 256 253 253 252 248 246 251 257 259 256 252 248 244 240 229 214 211 215 216 213 210
320 320 319 317 315 314 312 311 311 311 311 309 307 305 302 300 298 296 295 294 293 290 287 285 283 282 282 282 281 278 277 277 276 276 277 278 279 279 277 274 269 261 255 252 251 247 241 240 248 255 256 251 245 239 230 219 211 208 209 211 212 211
323 322 322 320 318 315 312 311 312 312 311 310 308 305 302 300 298 296 294 293 291 289 287 285 285 284 283 283 284 284 283 282 281 279 278 277 276 272 271 272 272 269 266 260 251 245 239 234 237 244 249 246 239 230 218 209 208 207 205 204 207 209